Location: *
(46.1200°N, 11.2700°E)
Time: 20:58:38
(UTC+00:00)

FALCON 9 DEB - Pass Details

Date: 02 March 2021
Orbit: 424 x 435 km, 53.0° (Epoch: 17 April)

Event Time Altitude Azimuth Distance (km) Brightness Sun altitude
Rises 19:01:56 0° 300° (WNW) 2,404 8.2 -21.3°
Reaches altitude 10° 19:04:03 10° 300° (WNW) 1,531 6.9 -21.7°
Enters shadow 19:06:58 62° 295° (WNW) 488 3.5 -22.2°
